Wind_Speed
11 11 12 12 13 13 14 14 14 15 16 17 17 17 17 18 18 19 19 20 19 20 20 19 19 20 20 20 21 21 21 21 22 22 23 23 24 24
11 12 12 12 12 12 12 13 13 14 15 16 16 16 16 16 18 19 19 19 19 19 20 19 20 20 20 21 21 21 21 22 23 24 24 24 23 23
11 12 12 12 12 12 12 13 13 14 14 15 15 16 16 17 17 17 18 18 18 18 19 19 19 20 21 21 21 21 21 22 23 24 23 24 24 24
10 11 11 11 12 12 12 13 13 14 14 14 15 16 16 16 16 17 18 18 19 19 18 18 19 19 20 21 21 21 22 22 22 23 24 24 24 24
10 10 10 10 11 12 12 12 12 13 13 13 14 15 15 16 17 17 18 18 18 18 18 18 19 19 19 21 21 22 22 23 23 24 24 25 25 25
9 9 9 9 10 11 12 12 12 12 13 13 13 14 15 16 16 17 18 18 18 19 18 19 19 19 20 21 21 21 21 22 22 23 24 25 26 26
10 10 10 10 11 11 12 12 12 13 13 13 13 14 15 16 16 17 18 18 18 19 19 19 19 19 20 20 20 21 21 21 22 23 24 25 25 26
12 12 12 12 13 13 13 13 13 13 13 14 14 15 16 16 17 17 18 19 19 19 19 19 20 20 21 21 21 21 22 23 23 23 23 25 25 26
14 14 13 13 14 14 14 14 14 14 15 15 16 17 17 18 18 18 19 20 20 20 20 20 20 21 21 21 22 22 22 23 23 23 24 24 25 26
15 15 15 15 16 16 15 15 16 16 16 17 17 17 18 18 19 20 20 21 21 21 21 21 21 21 22 23 23 23 24 24 25 25 25 25 26 26
16 16 17 17 17 17 17 17 17 17 18 18 18 18 19 19 20 21 21 21 22 22 22 22 22 22 23 23 24 24 24 25 25 26 26 26 26 26
18 18 18 19 19 18 18 18 18 19 19 19 19 20 20 21 21 22 22 22 23 23 23 23 24 24 24 24 24 24 24 25 25 25 26 27 27 27
19 19 19 20 20 20 20 20 20 20 20 20 21 21 21 22 22 23 23 23 23 23 23 23 23 24 24 24 25 25 26 26 26 26 26 27 28 29
20 20 21 21 21 20 20 21 21 21 21 21 21 21 22 22 22 23 23 23 23 23 23 23 24 24 24 24 25 26 27 27 27 27 28 28 29 29
20 21 21 22 21 21 21 21 21 22 21 21 21 22 22 21 22 22 22 22 23 23 24 23 24 25 25 26 26 26 26 27 28 28 28 29 29 29
20 21 22 22 22 21 21 21 21 21 21 21 21 21 22 22 22 23 23 23 23 24 24 25 25 26 26 26 26 26 26 27 28 28 28 29 29 30
20 21 21 21 21 21 21 21 21 21 21 21 22 22 22 23 23 23 24 24 24 24 24 24 25 26 26 26 26 27 27 27 28 29 29 29 29 30
21 21 21 21 21 21 21 21 21 21 21 22 22 23 23 23 23 24 24 24 24 25 25 25 26 27 27 26 27 27 28 28 28 29 29 29 29 29
21 21 21 21 22 22 22 22 21 22 22 22 23 23 24 24 25 25 25 25 25 25 26 26 27 28 28 27 28 28 29 29 29 29 30 29 29 29
21 21 21 21 22 22 22 22 22 22 23 23 24 24 24 25 26 26 26 26 26 26 27 27 28 29 29 29 29 29 29 30 30 30 30 30 29 29
20 20 21 21 21 22 22 22 23 23 24 24 25 25 25 26 26 27 27 27 27 27 27 28 29 30 29 29 30 30 30 30 29 30 30 29 29 29
20 20 20 21 22 22 23 23 23 24 25 25 26 26 27 27 28 28 28 28 27 27 28 28 29 29 30 30 30 30 30 30 30 30 30 29 29 29
21 21 21 21 22 22 23 23 24 25 25 26 26 27 28 28 28 29 29 29 29 29 28 29 29 29 29 29 30 30 30 30 30 30 30 30 29 29
Wind_Direction
268 268 266 264 262 264 264 263 263 262 263 264 265 266 267 266 267 269 273 276 278 278 278 278 277 278 275 275 275 276 274 271 269 270 270 271 270 266
267 269 267 262 259 263 266 267 266 267 267 265 265 266 266 268 271 273 277 277 278 278 280 282 280 280 279 279 277 275 273 270 270 271 270 270 270 268
266 268 267 263 258 262 267 268 270 270 268 267 268 268 267 270 274 277 278 279 281 283 282 282 280 281 280 278 275 272 271 271 272 271 269 269 269 271
273 269 265 264 266 267 271 271 271 269 268 270 273 271 270 273 275 276 277 280 281 282 284 285 282 281 281 279 277 277 275 274 274 273 270 270 270 270
283 278 275 269 269 273 274 274 272 271 270 274 276 276 273 275 277 278 279 280 281 283 284 284 283 280 281 281 282 280 279 277 277 276 273 272 271 269
284 283 282 280 277 278 280 277 275 274 274 275 279 280 278 279 280 281 281 282 282 282 282 284 287 287 284 282 283 282 282 281 279 278 278 276 273 271
278 280 282 282 282 283 285 282 280 278 277 275 279 282 281 281 280 282 282 284 284 282 282 284 286 286 285 284 283 283 284 284 284 282 280 279 276 273
274 277 279 280 281 283 285 283 282 279 278 279 282 284 283 284 283 283 284 285 285 284 283 284 285 285 285 285 285 286 288 288 288 287 285 283 280 278
273 273 274 278 281 281 280 281 281 281 279 281 285 286 285 285 286 286 287 287 287 284 283 285 285 284 285 287 287 287 288 288 288 287 287 286 284 284
270 272 273 276 280 281 280 280 281 282 282 282 285 286 287 286 287 288 288 287 288 285 283 284 284 286 286 286 287 287 288 289 288 287 288 287 286 285
269 271 273 276 277 278 279 280 280 281 282 284 286 287 289 290 289 289 288 288 288 286 285 285 285 284 285 285 286 287 289 290 290 288 287 286 286 284
269 271 274 275 277 278 280 281 281 281 282 283 284 285 288 290 290 291 291 290 289 288 286 286 286 286 286 288 288 288 289 289 289 288 288 287 285 285
271 273 275 277 277 279 279 279 281 282 284 286 287 288 290 290 292 293 292 291 291 290 289 288 287 287 287 288 288 287 287 287 288 288 287 287 286 285
272 274 276 277 278 279 279 279 280 281 283 286 289 291 292 292 292 293 293 292 291 290 289 290 290 290 290 289 289 289 288 287 288 289 288 288 288 287
271 272 275 276 278 280 280 281 282 282 283 285 288 290 293 293 293 294 293 293 293 292 290 290 291 292 291 291 291 290 290 289 290 290 290 290 290 289
275 274 275 276 277 279 280 282 283 283 284 286 288 290 293 293 294 294 293 293 293 293 292 292 293 293 293 293 292 292 291 291 291 290 290 290 291 291
279 278 277 277 277 278 280 282 283 284 285 287 289 291 292 293 293 294 294 295 294 295 295 294 294 295 296 295 295 295 295 293 292 291 290 290 290 291
280 280 277 276 277 279 281 283 283 283 285 287 288 289 291 292 292 293 294 295 295 295 296 296 296 296 295 295 296 296 296 295 295 295 293 291 290 291
280 279 277 277 278 279 280 281 281 282 283 285 287 289 290 291 291 292 293 293 294 294 295 295 296 296 296 295 295 295 295 295 295 295 295 294 293 294
279 278 278 278 279 279 279 280 281 283 285 286 287 288 289 290 290 291 291 292 293 293 294 294 295 296 297 297 297 296 296 295 294 294 294 294 293 293
278 277 278 279 280 280 281 281 282 284 286 288 289 289 289 289 289 290 291 291 292 293 293 294 294 294 294 295 296 296 296 295 295 294 293 293 292 292
277 277 278 278 280 282 283 284 285 286 287 288 289 290 290 289 290 290 290 291 292 293 294 294 294 293 293 294 296 296 295 295 293 293 293 293 293 293
274 276 278 280 280 282 284 285 286 287 288 289 289 290 292 292 291 291 291 291 291 292 293 294 295 295 295 294 295 295 294 294 293 292 292 292 293 293
Height
5818 5818 5818 5819 5819 5819 5819 5819 5820 5820 5821 5821 5821 5821 5821 5821 5821 5821 5821 5821 5821 5820 5820 5819 5818 5817 5817 5816 5816 5815 5814 5814 5814 5814 5813 5813 5813 5814
5816 5816 5816 5815 5815 5815 5815 5815 5815 5816 5816 5816 5816 5816 5816 5817 5817 5817 5816 5816 5816 5815 5815 5814 5813 5812 5811 5811 5810 5810 5809 5808 5808 5808 5808 5808 5807 5807
5813 5813 5813 5813 5812 5812 5812 5812 5812 5812 5812 5812 5812 5812 5812 5813 5813 5812 5812 5811 5811 5810 5810 5809 5808 5807 5806 5805 5804 5804 5803 5803 5802 5802 5801 5801 5801 5801
5811 5810 5810 5809 5810 5809 5808 5808 5808 5808 5808 5808 5808 5808 5808 5808 5808 5808 5807 5807 5806 5805 5805 5804 5803 5802 5800 5799 5799 5798 5798 5797 5796 5796 5795 5795 5794 5794
5808 5808 5807 5807 5806 5806 5805 5805 5805 5805 5805 5805 5805 5804 5804 5804 5804 5804 5803 5802 5802 5800 5799 5799 5797 5796 5795 5794 5793 5793 5792 5791 5791 5790 5789 5788 5788 5788
5806 5805 5805 5804 5804 5803 5802 5802 5801 5801 5802 5802 5801 5801 5801 5800 5800 5799 5799 5798 5797 5796 5795 5794 5792 5791 5790 5789 5788 5787 5786 5785 5785 5784 5783 5782 5781 5781
5803 5802 5802 5801 5801 5800 5799 5799 5798 5798 5798 5798 5798 5797 5797 5796 5796 5795 5794 5793 5792 5791 5790 5789 5787 5786 5785 5784 5783 5782 5781 5780 5779 5778 5776 5776 5775 5774
5800 5800 5799 5798 5798 5797 5796 5795 5795 5795 5795 5795 5794 5793 5793 5792 5791 5791 5790 5789 5788 5787 5785 5784 5782 5781 5780 5779 5777 5776 5775 5774 5772 5771 5770 5769 5768 5767
5796 5796 5796 5795 5795 5794 5793 5792 5792 5791 5791 5791 5790 5789 5789 5788 5787 5786 5784 5783 5782 5781 5780 5778 5777 5776 5775 5773 5772 5770 5769 5767 5766 5765 5764 5762 5761 5760
5792 5792 5792 5791 5791 5790 5790 5789 5788 5788 5787 5786 5786 5785 5784 5783 5782 5781 5779 5778 5777 5775 5774 5773 5772 5770 5769 5767 5766 5764 5763 5761 5760 5758 5757 5755 5754 5752
5788 5788 5788 5787 5787 5786 5786 5785 5784 5783 5783 5782 5781 5780 5779 5777 5776 5775 5774 5772 5771 5769 5768 5767 5765 5764 5763 5761 5759 5758 5756 5754 5752 5751 5749 5748 5746 5745
5783 5783 5783 5783 5782 5781 5781 5780 5780 5779 5778 5777 5776 5775 5774 5772 5770 5769 5767 5766 5764 5763 5761 5760 5759 5757 5756 5755 5753 5751 5749 5747 5745 5744 5742 5740 5739 5737
5778 5778 5778 5777 5776 5776 5775 5775 5774 5773 5772 5771 5770 5769 5768 5766 5764 5762 5761 5759 5758 5756 5755 5754 5753 5751 5750 5748 5746 5744 5742 5740 5738 5737 5735 5733 5731 5729
5772 5772 5771 5771 5770 5770 5769 5769 5768 5767 5766 5765 5764 5763 5762 5760 5758 5756 5754 5753 5752 5750 5749 5747 5746 5745 5743 5742 5740 5738 5735 5733 5731 5729 5727 5725 5723 5721
5766 5766 5765 5765 5764 5764 5763 5762 5762 5761 5760 5759 5758 5757 5755 5754 5752 5750 5748 5747 5745 5744 5742 5741 5739 5738 5736 5735 5733 5730 5728 5726 5724 5722 5719 5717 5715 5713
5759 5759 5759 5758 5758 5758 5757 5756 5755 5754 5753 5753 5752 5750 5749 5748 5746 5744 5743 5741 5739 5738 5736 5734 5732 5731 5729 5727 5725 5723 5721 5719 5716 5714 5712 5709 5707 5704
5753 5752 5752 5751 5751 5751 5750 5749 5749 5748 5747 5746 5745 5744 5743 5741 5740 5738 5736 5734 5733 5731 5729 5727 5725 5724 5722 5720 5718 5716 5713 5711 5708 5706 5704 5702 5699 5696
5746 5745 5745 5744 5744 5744 5743 5742 5742 5741 5740 5739 5738 5737 5736 5734 5733 5731 5729 5728 5726 5724 5722 5720 5718 5716 5715 5713 5711 5708 5705 5703 5700 5697 5695 5693 5690 5687
5739 5738 5738 5738 5737 5737 5736 5736 5735 5734 5733 5732 5731 5730 5729 5727 5726 5724 5722 5720 5719 5717 5715 5713 5711 5709 5707 5705 5702 5700 5697 5694 5692 5689 5686 5684 5682 5679
5732 5732 5731 5731 5730 5730 5729 5728 5728 5727 5726 5725 5724 5722 5721 5720 5718 5716 5715 5713 5711 5709 5707 5705 5703 5701 5698 5696 5694 5691 5688 5686 5683 5681 5678 5675 5673 5670
5726 5725 5725 5724 5724 5723 5722 5721 5720 5719 5718 5717 5716 5715 5713 5711 5710 5708 5706 5704 5703 5701 5699 5697 5694 5692 5689 5687 5685 5683 5680 5677 5674 5672 5670 5667 5665 5662
5719 5719 5718 5718 5717 5716 5715 5714 5713 5712 5711 5709 5708 5707 5705 5703 5701 5699 5698 5696 5694 5692 5690 5688 5685 5683 5681 5678 5676 5674 5671 5669 5666 5663 5660 5658 5655 5653
5713 5712 5711 5711 5710 5709 5708 5707 5706 5704 5703 5702 5700 5699 5697 5694 5692 5691 5689 5687 5685 5683 5681 5679 5676 5674 5672 5670 5667 5665 5663 5660 5657 5654 5652 5649 5647 5644